Regional Weather Roundup
Issued by NWS Portland, ME

Home | Current Version | Previous Version | Text Only | Print | Product List | Glossary On
Versions: 1 2 3 4 5 6 7 8 9 10 11 12 13 14 15 16 17 18 19 20 21 22 23 24 25 26 27 28 29 30 31 32 33 34 35 36 37 38 39 40 41 42 43 44 45 46 47 48 49 50
000
ASUS41 KGYX 192210
RWRGYX
WEATHER ROUNDUP FOR MAINE AND NEW HAMPSHIRE
NATIONAL WEATHER SERVICE GRAY ME
600 PM EDT FRI SEP 19 2014

MEZ002-005-006-010-012-015-018-020-021-024-026-027-029-192300-
MAINE

CITY           SKY/WX    TMP DP  RH WIND       PRES   REMARKS
PORTLAND       PTCLDY    52  32  46 S9        30.39S
SANFORD        CLEAR     52  30  43 S6        30.40R
BAR HARBOR     CLEAR     52  32  46 CALM      30.37S
WISCASSET      CLEAR     53  32  44 VRB5      30.40R
ROCKLAND       CLEAR     52  34  50 SW6       30.38S
FRYEBURG       CLEAR     53  28  38 S3        30.36F
LEWISTONAUBURN CLEAR     54  23  30 S5        30.37F
AUGUSTA        CLEAR     54  20  26 CALM      30.37F
WATERVILLE     CLEAR     52  30  43 CALM      30.31F
BANGOR         MOCLDY    54  22  28 SW5       30.36S
GREENVILLE       N/A     46  26  45 CALM      30.30F
MILLINOCKET    CLEAR     49  28  44 CALM      30.35S
HOULTON        CLEAR     49  27  42 W3        30.31S
PRESQUE ISLE   CLEAR     52  19  28 CALM      30.31S
FRENCHVILLE    CLEAR     46  22  38 W5        30.29S
CARIBOU        CLEAR     50  22  33 CALM      30.30S
$$

NHZ002-005-008-009-011-012-014-192300-
NEW HAMPSHIRE

CITY           SKY/WX    TMP DP  RH WIND       PRES   REMARKS
PORTSMOUTH     PTCLDY    52  32  47 SE8       30.39S
ROCHESTER      CLEAR     52  32  46 S6        30.38S
NASHUA         CLEAR     56  31  38 CALM      30.39S
MANCHESTER     PTCLDY    57  29  34 SE14      30.37R
CONCORD        CLEAR     55  28  35 S6        30.37S
LACONIA        CLEAR     55  28  35 S5        30.35S
PLYMOUTH       FAIR      55  33  44 CALM      30.35S
BERLIN         CLEAR     53  28  38 S8        30.32S
WHITEFIELD     CLEAR     54  31  41 W6        30.32S
JAFFREY        CLEAR     54  31  41 VRB3      30.37S
LEBANON        CLEAR     57  30  35 SW7       30.34S
MT WASHINGTON  PTCLDY    34   5  29 S9          N/A
$$

VTZ005-007-008-192300-
VERMONT

CITY           SKY/WX    TMP DP  RH WIND       PRES   REMARKS
ST JOHNSBURY     N/A     54  29  38 MISG      30.31S
MONTPELIER     CLEAR     52  27  38 S7        30.36R
BURLINGTON     PTCLDY    56  34  43 S7        30.31S
$$

MAZ007-012-024-CTZ003-RIZ002-NYZ038-NYZ072-192300-
SOUTHERN NEW ENGLAND AND NY

CITY           SKY/WX    TMP DP  RH WIND       PRES   REMARKS
BOSTON         PTCLDY    53  30  41 E8        30.41S
WORCESTER      CLEAR     53  34  48 E7        30.37S
NANTUCKET      CLEAR     55  36  48 NE9       30.38R
PROVIDENCE     PTCLDY    57  35  43 E8        30.40R
HARTFORD       CLEAR     62  35  36 N5        30.34F
ALBANY         PTCLDY    60  38  43 S7        30.32F
NEW YORK CITY  MOSUNNY   65  47  52 E12       30.33S
$$

ANZ081-ANZ082-ANZ150-NHZ014-MEZ023>029-192300-
COASTAL MARINE OBSERVATIONS

STATION/POSITION TIME  TEMP    WIND        PRES    WAVE
                       AIR SEA DIR/SP/G            HT/PER
                 (UTC) (F)     (DEG/KT/KT) (MB)    (FT/S)
MATINICUS ROCK   2200          230/  9/ 11 1028.9R
PORTLAND WX BUOY 2150   53 58  190/ 10/ 12 1029.2S   2/ 8
WELLS            2100   53 59  180/  9/ 12 1028.7R
ISLE OF SHOALS   2100   51     110/  8/  9 1029.1R
JEFFREYS LEDGE   2121      60                N/A     4/ 6
CASHES LEDGE BUO 2150   53 60              1029.6R   4/ 7
$$

.............KEY..............
   WCI - WIND CHILL
   TC  - TEMPERATURE IN CELSIUS
   VSB - VISIBILITY IN MILES
   HX  - HEAT INDEX
   FAIR- INDICATES FEW OR NO CLOUDS BELOW 12,000 FT, WITH NO
         SIGNIFICANT WEATHER AND/OR OBSTRUCTIONS TO VISIBILITY.





USA.gov is the U.S. government's official web portal to all federal, state and local government web resources and services.